Theta_e
327 326 326 327 328 330 329 329 329 328 325 324 324 323 324 324 323 322 322 322 322 323 323 321 320 320 321 322 322 321 321 321 319 317 315 316 314 315 319 317 317 318 317 316 319 317 316 313 314 315 314 318 319 318 320 321 322 322 322 323 323 324 325
327 327 329 330 328 329 329 329 325 322 322 322 322 321 321 322 323 321 321 320 320 320 322 320 320 320 319 318 318 318 317 318 319 317 316 314 314 313 313 314 314 314 315 315 316 316 314 312 312 312 314 317 317 315 320 319 321 322 322 322 323 324 324
329 328 328 327 327 328 328 323 320 320 320 319 319 320 320 320 320 320 319 319 319 321 321 318 319 318 318 317 317 317 316 316 316 316 315 314 314 314 314 313 312 312 313 313 314 316 315 315 312 312 315 314 312 313 317 319 319 321 322 322 321 322 323
328 327 326 326 327 327 323 320 319 318 318 318 318 318 318 318 319 321 318 318 319 321 319 317 317 317 316 316 316 316 315 314 314 314 314 314 313 313 313 312 313 314 313 312 313 314 314 313 312 313 314 315 313 312 314 317 318 320 321 321 321 321 323
327 327 325 325 327 325 321 318 317 317 316 317 317 317 318 318 318 316 317 316 317 315 315 316 316 316 316 315 315 315 314 314 314 314 313 312 312 312 312 313 312 313 313 313 314 315 314 313 313 312 311 312 312 312 315 315 317 316 319 320 319 320 321
327 327 326 327 326 322 318 316 315 315 315 315 316 316 316 316 316 314 315 314 314 315 315 315 315 315 315 314 314 313 313 312 312 312 312 311 312 311 311 311 311 311 310 312 312 312 312 312 312 309 310 312 310 310 312 313 312 317 316 319 316 320 317
327 327 327 326 323 320 318 316 315 314 313 313 314 314 314 315 315 315 314 313 314 315 316 315 314 314 314 314 313 313 312 312 312 312 312 312 312 311 311 309 308 308 307 308 309 309 308 308 307 307 306 308 309 308 310 309 312 312 312 316 315 319 314
326 324 322 322 319 317 316 315 314 314 314 313 314 314 315 314 314 314 314 312 313 313 313 313 314 313 313 313 313 313 313 312 312 313 312 312 311 309 308 307 306 304 304 304 305 305 306 306 306 306 306 303 305 307 307 308 308 308 310 311 313 316 312
322 320 319 319 317 316 315 314 313 313 313 313 314 314 313 313 312 312 312 311 312 312 312 312 312 312 311 311 310 311 312 315 312 312 312 310 308 306 305 305 304 303 303 303 303 303 303 304 305 305 306 304 302 301 305 305 306 308 311 308 310 311 309
319 318 316 316 315 316 315 314 313 313 314 314 314 314 313 312 312 311 310 310 310 310 310 311 311 311 311 311 311 310 310 311 312 311 311 309 306 304 304 303 302 302 302 302 301 301 301 301 302 303 305 303 303 302 300 300 303 304 308 308 305 307 308
317 316 316 315 315 315 315 315 315 314 314 314 314 313 311 311 310 312 308 308 308 309 309 310 310 311 311 310 310 310 310 309 310 312 310 307 304 304 303 302 301 300 301 300 299 299 299 299 299 300 301 302 304 301 301 299 300 305 305 306 305 303 306
316 315 316 316 315 314 314 314 314 313 313 312 312 310 309 308 308 307 307 306 307 308 309 309 310 309 308 309 310 309 309 309 309 309 307 305 304 302 301 300 300 299 299 299 298 298 298 299 298 299 299 300 301 301 301 302 299 305 306 303 304 305 304
316 315 315 315 314 314 314 313 313 312 311 310 309 308 307 307 306 306 306 306 307 307 307 307 308 307 307 307 307 306 306 306 307 307 304 304 303 301 299 298 298 298 298 298 297 297 297 298 298 298 298 299 299 300 302 302 301 301 305 303 303 304 304
315 315 314 314 313 313 313 313 312 311 310 308 307 306 306 305 305 305 305 306 305 305 306 306 307 307 306 305 304 303 303 303 303 304 305 303 302 300 299 298 297 298 298 296 296 297 297 297 298 298 299 298 299 301 302 302 301 300 303 304 304 303 304
314 314 313 313 312 312 312 311 311 309 308 307 306 305 305 304 304 304 304 303 303 303 303 304 304 305 303 302 301 302 301 301 300 300 300 299 299 300 298 297 297 297 297 296 296 296 296 296 297 297 298 298 298 300 303 302 302 301 298 301 301 303 302
312 312 312 312 311 311 311 310 310 307 306 305 305 304 304 303 303 303 302 301 301 301 302 302 303 302 301 300 299 299 300 299 299 299 298 298 298 298 297 297 296 296 297 295 295 295 296 296 297 297 298 299 299 300 302 303 302 298 297 298 300 299 300
311 311 311 311 311 310 310 308 308 306 305 304 303 303 303 302 302 301 300 300 300 300 301 302 302 301 300 299 298 298 298 298 298 298 298 297 296 296 296 295 295 295 295 294 294 295 295 296 296 297 298 300 301 301 302 303 302 299 298 296 297 297 299
311 310 310 310 310 309 308 307 306 305 304 303 303 302 302 301 300 299 299 298 299 299 300 301 301 300 299 298 298 298 297 297 297 296 296 297 300 296 296 295 295 294 294 293 294 294 294 295 296 297 298 300 301 301 301 300 299 299 296 295 295 297 298
310 310 310 309 308 307 307 306 305 305 304 303 302 301 301 301 300 298 298 298 298 299 300 300 300 299 298 298 298 297 297 296 296 296 295 295 295 296 295 295 295 295 294 293 293 294 294 294 296 296 297 298 299 299 298 298 298 297 296 295 295 295 297
310 310 310 308 307 307 306 305 304 303 303 302 300 300 299 299 299 298 297 298 298 299 300 300 299 298 298 297 297 296 296 295 295 295 294 295 294 294 294 295 296 296 295 294 293 293 294 295 295 295 297 297 298 297 296 296 296 295 295 295 296 296 296
310 310 309 308 307 306 306 305 304 303 302 301 300 300 299 298 298 298 298 298 299 300 299 299 298 298 298 297 297 296 295 295 294 294 294 294 294 294 294 294 296 297 297 296 295 294 294 295 295 295 295 296 296 295 295 295 294 294 294 294 294 294 295
310 309 307 307 306 306 305 304 304 303 302 302 302 301 300 299 298 297 297 297 298 298 299 298 298 297 296 296 295 295 294 294 294 293 293 293 293 293 293 294 296 298 302 303 301 299 299 299 296 294 295 295 297 294 294 294 294 293 294 294 293 294 294
308 307 306 305 305 305 305 304 303 302 301 301 300 299 298 297 297 297 297 297 297 298 298 299 302 300 300 296 294 295 294 294 293 293 293 293 293 293 293 292 298 302 301 302 300 296 295 295 297 297 296 295 295 294 293 293 293 294 294 293 293 293 292
307 305 305 305 305 304 304 304 302 300 299 299 297 298 296 296 296 296 296 297 296 297 297 299 297 295 295 297 295 293 293 293 292 292 292 292 292 293 292 292 292 297 298 299 298 295 294 294 294 295 296 298 300 296 293 293 293 294 294 293 294 293 292
306 306 306 305 304 304 303 302 301 299 299 298 297 296 295 295 295 295 296 296 296 296 297 299 295 295 295 295 298 295 293 293 293 292 292 292 292 292 292 292 292 294 294 298 296 291 293 295 294 295 295 295 295 296 295 293 293 293 293 293 292 292 293
305 305 305 304 303 303 301 300 299 298 298 298 297 296 295 294 294 294 295 295 295 295 294 296 295 295 295 294 295 296 293 293 294 292 292 291 291 291 292 293 292 292 292 299 297 290 290 291 295 296 296 297 296 297 293 293 294 296 295 293 292 292 293
304 304 304 304 303 302 300 299 298 298 298 297 296 295 294 293 293 293 294 294 293 292 293 296 295 295 294 294 294 295 292 293 292 292 292 291 291 291 291 292 290 291 290 291 292 291 290 291 291 292 292 292 292 295 295 294 294 294 296 295 293 292 294
303 304 304 303 302 300 298 297 296 296 295 295 293 292 292 292 292 293 292 293 293 292 293 294 294 294 293 294 294 294 293 294 293 291 291 291 290 290 291 292 290 289 289 289 293 292 291 290 290 291 291 291 291 291 291 292 293 294 295 294 293 293 294
303 302 302 301 299 297 296 295 294 294 294 293 292 291 291 291 291 291 292 293 292 291 291 293 293 293 293 294 295 296 293 292 291 290 290 290 290 290 291 292 289 288 288 289 293 291 293 292 290 290 290 289 290 290 291 295 294 295 295 293 293 293 293
302 301 301 299 297 296 295 294 294 294 292 291 290 290 290 290 291 292 292 292 291 289 290 292 293 293 293 293 293 292 290 291 290 289 289 289 289 290 292 293 289 287 288 288 292 290 291 294 289 289 288 288 289 289 290 292 294 293 293 293 293 293 293
301 300 299 297 296 295 295 294 293 294 292 291 290 290 290 290 290 291 291 290 291 290 288 292 293 293 292 292 293 290 289 290 289 289 289 288 289 289 292 300 298 288 287 289 291 290 291 292 289 288 287 287 288 288 289 290 291 293 293 293 293 293 293
300 299 298 297 296 295 294 294 294 293 292 292 291 291 292 290 290 291 292 292 297 291 289 292 292 292 292 293 293 289 290 290 289 288 288 289 288 289 289 293 297 293 291 290 289 290 291 292 288 287 287 287 287 287 288 288 289 290 290 291 291 293 293
300 299 298 297 296 295 295 294 292 292 292 291 291 290 290 290 289 288 289 289 290 289 289 289 290 291 292 292 293 291 290 289 289 286 287 289 289 287 287 288 293 291 289 290 290 289 290 291 289 287 287 287 286 287 288 288 292 291 289 290 290 291 291
299 298 298 296 296 296 294 292 292 292 291 291 290 290 290 290 290 288 288 288 289 289 291 288 289 291 291 291 291 291 287 288 286 286 284 286 283 285 287 287 287 292 290 290 290 290 290 290 291 290 287 287 286 289 290 288 290 293 288 290 290 291 291
299 298 298 297 295 293 293 293 293 292 291 290 290 289 289 289 288 287 287 287 288 288 292 294 289 291 291 291 291 291 290 288 288 287 286 285 285 285 284 285 287 291 290 290 289 290 290 290 290 291 288 289 289 289 290 291 288 288 288 288 288 290 290
298 298 297 296 294 293 292 292 292 291 290 290 289 289 288 288 288 287 286 286 285 286 286 291 292 290 291 290 290 290 290 288 291 290 286 286 286 284 284 284 288 293 289 289 289 289 290 290 290 288 289 289 289 289 290 288 288 287 286 287 288 288 288
298 297 296 295 294 292 291 291 292 291 291 290 289 288 287 288 286 286 285 284 286 285 285 286 291 291 289 289 290 290 289 289 289 289 287 286 285 284 285 285 289 289 290 290 289 289 289 290 288 289 289 289 289 289 288 287 285 286 286 286 286 286 287
Wind_Speed
7 6 4 4 4 4 5 4 4 4 5 6 7 6 6 5 5 5 4 4 5 4 4 5 5 3 4 5 5 5 6 6 6 6 4 6 4 3 4 6 5 4 4 3 3 4 5 9 9 3 0 5 5 4 5 7 8 8 8 8 7 7 7
5 5 5 5 5 4 6 5 6 6 6 6 6 6 6 5 5 5 5 5 5 4 4 5 5 5 6 6 6 7 7 7 6 4 6 5 5 5 4 5 4 5 4 3 3 5 2 6 9 5 9 4 1 3 6 5 8 8 7 6 6 5 5
6 5 5 6 6 5 6 6 5 6 5 5 5 5 6 6 6 5 6 6 5 4 4 4 5 6 6 7 6 6 6 7 5 6 6 5 5 5 4 3 4 4 3 3 4 5 2 3 7 10 8 10 11 5 2 7 8 8 7 6 5 5 6
8 8 7 6 6 6 6 6 5 5 4 5 5 6 6 6 6 6 6 5 4 4 5 6 6 5 5 6 5 6 7 7 6 6 7 5 5 5 5 5 6 6 5 5 6 5 5 5 7 7 7 7 8 10 4 4 6 6 6 5 6 6 7
10 8 9 9 7 8 7 7 5 5 5 5 5 6 6 6 6 5 5 5 5 5 6 5 5 5 5 5 6 6 6 6 6 6 6 6 5 6 6 5 6 5 6 6 6 5 5 6 6 7 7 8 7 3 5 6 6 3 6 5 7 7 8
8 7 8 8 7 7 7 7 6 6 4 5 5 6 5 5 5 6 5 5 5 5 5 5 5 5 5 6 6 6 6 6 6 6 6 5 6 6 5 4 5 6 6 5 5 5 5 6 5 6 6 6 7 8 5 5 4 6 3 7 8 6 7
8 8 6 8 7 6 7 6 6 5 6 5 5 6 4 5 5 5 5 5 4 5 5 5 5 4 5 6 5 6 6 5 6 6 5 5 6 6 5 6 7 7 6 6 6 5 6 6 6 6 8 6 6 6 5 4 5 4 3 5 8 5 9
7 7 6 7 8 8 6 7 5 5 6 5 6 4 4 5 5 6 5 5 5 5 5 5 5 5 5 5 5 5 5 4 5 6 6 6 7 7 7 6 6 7 6 6 6 6 6 5 5 6 7 9 5 5 6 5 4 4 3 4 7 6 11
8 8 7 7 7 7 7 7 6 5 5 5 5 5 5 6 7 6 5 5 5 5 4 4 4 5 4 5 4 4 5 4 5 6 6 7 8 8 7 6 7 6 6 6 6 6 6 6 6 5 6 6 8 8 7 6 5 5 5 7 5 6 9
10 10 9 10 9 7 7 7 6 5 5 5 6 5 6 7 7 6 6 6 5 4 4 4 4 4 4 4 4 5 5 4 5 6 7 8 7 7 7 7 6 6 6 5 5 6 5 5 5 5 5 6 6 7 8 7 8 9 5 6 6 6 9
10 10 10 11 9 9 7 6 6 6 6 5 6 6 7 7 7 6 6 5 4 4 4 4 4 4 4 4 4 4 4 4 5 7 8 8 7 6 7 7 6 6 6 6 6 5 5 5 5 5 5 5 5 5 6 7 8 7 6 7 5 7 10
9 10 9 9 9 9 8 7 7 6 7 7 7 7 7 7 6 5 5 5 5 5 5 4 4 4 4 5 5 6 6 5 7 9 8 7 6 7 7 8 6 6 6 6 5 6 5 5 5 5 5 4 5 3 6 7 8 3 6 8 8 7 9
9 9 9 10 9 9 8 8 8 8 8 7 7 7 7 6 6 6 5 5 5 4 4 3 4 5 6 6 6 7 7 8 9 9 8 7 6 7 7 7 6 6 5 5 6 5 5 5 4 5 5 5 4 4 4 5 8 10 7 5 8 9 9
10 9 10 10 10 8 7 7 8 8 8 7 7 7 7 6 5 5 5 5 5 4 5 6 5 5 6 7 7 7 8 9 9 7 7 7 6 6 6 6 6 6 5 5 5 5 6 6 6 6 5 5 6 5 6 6 8 10 8 4 7 7 9
10 9 11 9 9 8 8 8 8 8 9 6 6 7 6 5 5 5 6 5 5 6 6 6 5 5 7 8 7 6 7 9 9 8 7 7 6 6 6 6 7 6 5 4 4 5 5 6 6 6 6 6 5 6 5 5 6 7 12 9 8 6 7
10 11 11 9 9 8 8 9 8 10 8 7 6 6 5 6 5 6 6 5 6 7 7 6 5 6 7 8 8 7 7 8 7 7 7 6 6 5 6 6 6 5 4 5 5 5 6 6 5 5 6 4 5 5 5 4 5 8 10 11 9 10 10
11 10 10 8 9 8 9 9 8 9 7 6 7 5 5 6 6 6 6 6 7 7 7 6 6 6 7 7 7 7 7 7 7 6 6 6 5 5 5 5 5 5 4 6 7 7 7 6 6 6 6 6 6 7 6 5 6 7 8 11 11 10 10
11 10 9 8 9 9 9 8 8 8 8 8 6 6 6 5 6 6 6 6 7 7 6 6 7 6 6 6 7 7 7 7 6 6 6 5 5 4 5 4 4 4 4 6 6 7 6 8 7 7 8 8 8 8 8 8 8 7 8 9 10 9 9
10 10 9 8 9 9 9 8 8 7 8 8 6 5 6 5 6 7 6 6 7 6 5 6 6 6 6 6 7 7 6 6 6 6 5 4 4 4 4 4 4 4 6 6 6 6 6 7 7 8 9 9 8 8 8 8 8 8 7 7 8 10 9
9 9 9 9 9 8 9 8 8 7 6 7 7 7 6 7 6 6 6 6 6 6 6 6 6 6 6 6 7 7 6 6 5 5 4 4 4 4 4 4 5 5 5 5 5 5 6 7 7 8 7 7 7 7 8 8 8 8 8 8 8 8 9
9 9 9 9 10 9 9 9 8 7 6 7 7 7 7 8 5 6 6 6 5 5 6 6 5 6 6 6 6 6 5 5 5 5 5 5 4 5 5 5 5 5 4 4 5 5 5 6 6 6 6 6 6 6 7 7 8 9 9 8 9 10 9
8 9 10 11 10 10 10 9 7 6 6 6 6 6 6 7 8 8 6 6 5 4 6 6 5 6 7 6 5 5 5 5 5 5 5 5 5 6 6 5 5 5 8 12 12 9 8 7 5 6 6 5 6 5 5 6 7 8 8 8 9 9 10
9 10 10 11 10 10 10 9 8 6 6 6 6 6 6 6 7 7 7 6 5 5 5 4 8 11 8 5 4 4 5 5 4 5 5 6 6 6 5 5 6 13 12 12 11 12 12 12 10 6 5 5 5 5 6 6 7 7 9 10 11 12 13
10 11 11 11 11 11 11 9 8 7 6 6 6 5 6 7 6 5 6 6 6 5 5 5 11 10 10 8 5 4 5 4 4 5 5 6 6 6 6 5 5 8 9 8 8 11 11 11 10 11 10 9 7 3 4 6 7 7 8 8 8 10 11
10 11 11 11 11 11 10 10 9 8 7 7 5 5 7 6 6 5 6 6 6 5 4 7 11 9 8 8 6 4 4 4 5 5 5 6 5 5 6 6 5 5 5 7 6 7 9 10 10 10 10 10 10 11 6 1 3 7 7 8 9 8 9
10 11 11 11 11 11 10 9 9 8 7 5 5 6 6 6 5 5 6 7 5 4 4 7 9 9 8 8 7 5 4 4 6 6 6 5 5 5 6 6 6 6 6 11 8 5 5 6 9 10 10 10 11 11 12 13 9 4 4 6 7 9 9
10 10 11 11 11 10 10 9 7 7 7 6 7 6 6 6 5 5 5 5 5 4 3 5 8 7 7 6 6 5 4 4 4 5 5 5 4 5 5 5 6 6 6 6 6 6 5 5 5 5 6 5 5 8 10 10 10 11 8 6 6 8 9
10 10 11 11 10 10 9 8 8 6 6 6 6 6 6 6 4 4 4 4 5 4 2 5 8 8 6 6 6 6 4 5 5 5 5 5 5 4 4 5 4 4 4 4 4 5 4 4 4 5 6 6 6 6 5 6 6 5 6 6 6 6 7
10 10 11 11 11 10 8 8 8 6 6 6 5 5 4 5 5 5 4 5 5 4 1 5 9 8 7 6 7 5 5 5 5 5 6 5 5 5 4 4 4 4 4 4 7 9 6 4 5 6 7 6 7 7 6 7 11 10 8 7 6 6 6
10 11 12 12 11 10 9 7 6 6 7 6 6 5 4 4 4 6 5 6 7 4 3 2 10 9 8 8 6 5 4 5 5 5 4 4 4 5 5 4 4 3 4 4 7 8 8 7 5 6 6 7 7 7 8 8 11 12 13 12 11 12 11
11 11 11 12 10 8 7 6 6 5 9 7 6 5 4 5 4 5 6 6 6 6 4 3 9 9 9 8 6 4 3 5 5 5 5 4 5 5 5 10 7 3 3 4 7 8 8 5 5 5 5 6 7 8 9 9 7 9 12 11 10 9 9
10 11 11 11 10 10 8 7 6 5 7 7 6 4 5 7 6 5 6 6 9 8 5 4 8 11 9 8 5 3 4 5 6 5 5 5 4 6 5 5 8 6 4 4 9 9 8 5 5 4 4 5 7 7 8 7 7 10 10 10 10 9 8
10 11 11 10 9 9 7 7 7 7 6 6 6 5 5 6 7 5 4 5 5 5 6 4 4 9 9 8 7 5 4 6 4 4 4 4 6 5 4 5 6 8 8 9 9 9 9 8 5 4 4 5 5 7 7 7 8 8 7 7 8 7 7
11 10 10 10 9 8 7 8 7 8 7 6 6 7 6 6 7 5 5 4 5 4 4 5 4 7 9 9 8 8 4 4 1 2 3 3 3 3 4 5 4 7 8 8 9 10 9 9 7 4 4 4 2 4 5 6 9 10 7 7 7 7 7
10 9 10 10 9 8 6 8 8 7 7 7 7 7 5 6 7 6 5 4 4 4 4 6 5 8 10 10 8 6 5 1 0 1 2 2 2 3 3 3 4 6 7 7 8 9 10 10 10 6 6 8 10 12 7 4 5 6 7 7 7 7 9
9 8 9 10 11 9 7 7 7 7 7 6 7 7 6 6 6 6 6 5 4 4 3 4 7 6 9 9 9 8 5 3 3 1 4 2 1 2 3 3 3 6 5 7 7 8 9 10 8 6 10 11 10 11 8 6 5 7 7 7 7 8 8
9 9 10 10 10 10 8 7 7 7 7 7 7 7 6 6 6 6 6 4 3 3 3 3 5 7 5 7 7 6 5 5 2 1 2 1 1 2 3 3 4 7 6 7 7 7 8 8 6 9 11 11 10 8 5 6 6 6 6 7 8 8 8
Wind_Direction
156 159 149 118 96 107 99 90 81 64 62 63 71 69 77 85 86 78 69 67 68 58 64 63 70 66 72 56 58 66 63 56 66 85 73 32 57 341 358 20 11 9 30 62 58 338 304 309 312 323 329 340 341 316 337 335 332 328 320 323 330 334 335
119 124 119 113 106 103 105 87 79 73 64 60 65 76 76 77 78 78 74 74 70 61 69 71 64 64 64 66 58 55 61 58 56 75 76 51 46 28 5 9 10 11 359 25 18 23 347 316 299 328 325 332 314 345 333 343 330 323 317 320 329 339 346
118 108 114 124 125 121 106 92 84 76 73 68 61 66 70 67 70 69 69 66 64 65 66 70 73 66 62 65 62 70 69 71 53 61 72 62 55 43 47 26 39 359 26 11 19 353 292 235 297 317 328 336 335 330 359 351 331 321 319 332 345 357 360
133 134 132 128 123 117 110 96 91 87 74 76 73 64 64 61 64 62 63 61 58 58 59 61 62 71 67 71 70 69 64 69 64 65 62 54 58 51 43 41 40 36 29 14 352 355 348 332 322 314 327 341 325 320 340 326 314 305 317 337 2 3 2
142 153 152 146 144 132 121 114 109 97 81 75 71 73 62 60 66 60 56 55 53 52 58 65 70 73 73 72 68 69 68 63 62 64 61 58 50 58 48 40 45 38 33 20 358 349 349 336 324 325 330 329 308 291 309 319 301 302 318 5 7 4 359
139 155 145 140 140 131 127 124 118 109 104 85 72 80 71 73 76 66 54 51 52 58 74 73 69 71 76 75 73 69 66 62 60 63 65 58 60 60 58 45 46 38 31 15 7 2 353 337 345 326 324 319 309 316 318 324 317 314 316 25 355 7 2
146 141 145 131 123 124 123 120 118 120 111 111 103 95 103 87 73 70 65 61 63 72 75 75 73 71 73 76 73 72 68 68 68 66 69 68 61 55 47 44 38 31 26 13 12 8 2 358 352 344 325 319 308 306 310 323 307 337 337 18 353 0 10
127 122 121 122 127 123 116 116 113 115 113 113 104 101 86 84 75 61 63 67 64 67 70 73 71 69 71 73 73 76 71 65 70 71 65 64 60 54 48 46 43 36 23 17 12 11 1 353 345 345 339 329 322 316 323 313 315 338 330 350 350 12 9
116 111 109 106 104 109 116 116 117 111 105 101 91 92 70 70 70 71 63 61 61 65 70 79 77 75 73 79 71 67 69 58 74 74 71 64 59 54 51 42 45 32 21 17 11 359 2 349 344 343 342 352 340 326 333 326 335 317 13 358 344 37 3
122 124 121 115 113 111 111 113 114 111 101 99 96 77 83 79 80 77 71 62 58 57 55 49 61 73 80 83 82 75 73 65 74 74 70 68 60 56 49 42 41 26 16 9 6 7 1 353 349 341 349 357 341 329 334 327 327 327 348 17 350 344 354
115 112 115 118 117 114 108 107 109 106 104 94 87 90 86 83 77 75 76 65 58 57 57 53 63 71 77 76 75 70 68 68 72 72 71 68 59 55 49 43 30 27 8 6 5 359 2 355 352 350 348 350 352 351 333 322 316 314 335 346 355 338 341
102 114 114 112 113 112 112 112 108 104 88 85 92 93 91 86 85 77 79 74 64 66 61 62 66 67 65 63 50 53 46 52 66 73 69 63 52 50 45 40 26 20 6 2 359 0 359 357 354 344 350 1 357 354 333 325 319 330 11 327 332 341 333
112 111 114 113 108 108 111 110 105 91 94 94 93 93 92 93 92 90 79 79 76 70 71 59 61 59 56 58 60 58 52 58 65 77 74 62 56 50 47 42 27 17 2 3 3 356 351 353 353 355 356 354 349 346 332 326 319 312 330 316 326 324 329
108 105 101 101 104 104 104 99 89 98 95 89 96 91 90 90 87 87 81 74 73 66 55 43 37 57 69 69 63 62 59 61 63 59 66 60 53 49 44 42 27 14 7 10 358 351 357 355 357 1 356 359 356 353 2 339 335 323 317 321 315 315 323
103 102 102 101 103 105 98 88 99 92 89 84 88 94 92 90 88 86 85 75 69 64 58 53 51 64 72 71 64 61 63 66 68 65 63 57 47 44 42 40 26 12 6 6 1 7 0 1 4 0 2 359 352 347 352 346 329 327 320 326 324 317 314
104 101 101 103 104 99 90 94 93 94 91 88 77 82 92 93 89 88 82 73 70 66 63 66 59 72 73 75 75 69 68 70 71 70 66 58 51 43 43 39 26 11 359 13 11 8 8 7 359 4 353 353 351 338 335 338 326 330 326 322 329 328 330
104 104 104 109 105 92 95 95 94 91 91 90 89 79 76 83 85 85 83 75 71 74 73 74 74 72 77 80 81 78 74 74 74 73 72 64 52 45 45 39 24 13 5 22 15 10 5 2 4 354 356 354 354 351 340 337 345 339 331 324 329 329 329
109 111 115 110 98 97 100 101 98 101 99 90 86 87 77 73 83 78 80 81 80 79 83 89 88 82 79 81 84 84 84 82 76 70 64 58 50 47 39 40 21 20 20 27 16 13 1 8 2 7 7 360 0 357 353 351 348 344 333 324 319 318 320
115 120 114 98 96 103 105 102 99 96 103 100 89 80 86 78 78 83 82 84 87 91 90 91 90 90 89 86 85 84 83 79 74 68 62 53 49 38 37 27 18 28 34 36 19 11 11 13 11 14 12 5 1 356 354 349 344 336 327 315 313 315 324
123 115 106 103 104 103 100 99 97 98 97 101 101 95 86 84 72 83 82 86 91 97 94 90 93 93 90 87 88 85 79 74 69 65 56 52 43 37 32 22 22 25 36 34 31 24 17 19 15 13 10 360 359 1 356 351 342 337 330 322 318 316 320
122 113 103 104 107 106 102 98 97 99 100 97 96 97 97 94 87 86 88 89 92 97 98 96 93 89 87 89 88 81 80 76 71 61 52 43 37 34 28 22 18 17 26 34 34 26 30 19 13 12 2 358 354 355 353 348 348 346 341 337 335 337 336
117 108 106 111 113 109 103 101 100 99 98 98 93 93 96 102 104 95 86 89 93 92 92 94 94 98 98 87 85 86 80 76 69 64 52 42 35 32 27 18 7 16 20 18 15 12 9 16 20 4 347 354 349 345 340 345 348 347 344 344 344 342 338
110 104 106 110 112 110 108 107 104 98 92 93 94 93 89 89 96 105 106 100 95 91 88 89 98 97 98 104 94 90 83 73 68 62 54 42 32 30 22 20 11 24 18 13 10 4 359 355 352 348 323 324 329 336 337 338 346 350 348 353 356 349 344
114 113 118 118 117 115 115 115 112 106 101 95 91 89 92 93 94 101 109 109 98 91 94 100 102 100 101 102 100 91 86 76 67 60 55 49 37 21 15 17 18 15 16 6 5 1 355 349 340 335 333 327 325 320 328 338 339 343 348 345 341 347 348
115 117 117 119 117 116 117 115 115 112 107 102 95 93 89 93 98 105 102 98 100 106 108 116 112 113 110 101 94 91 85 77 63 55 48 44 33 25 17 16 15 18 11 9 13 360 348 344 345 345 347 352 353 354 355 338 322 335 338 337 340 342 340
119 119 118 118 118 118 118 116 115 112 107 106 99 91 96 97 97 100 104 106 108 111 120 134 125 120 110 100 91 84 75 66 58 45 38 32 30 26 21 20 14 15 6 6 8 352 345 341 346 353 5 6 2 8 1 354 346 335 307 325 335 335 343
128 126 124 122 121 119 116 114 110 110 113 107 104 100 92 94 97 101 108 110 108 102 102 128 125 117 104 86 69 63 58 54 45 39 30 26 28 28 24 27 19 10 359 358 356 351 340 347 346 0 4 3 360 354 355 354 344 340 345 345 336 336 331
126 124 120 118 117 115 115 113 110 113 114 116 113 109 109 105 101 103 103 105 103 92 98 124 115 107 101 84 63 58 43 39 36 30 29 28 29 27 26 32 27 12 353 346 347 341 345 350 2 11 7 360 355 349 344 345 341 339 344 344 341 327 324
124 118 118 117 116 117 118 121 122 120 108 97 89 92 80 93 105 106 107 103 92 79 45 142 124 120 109 89 63 47 44 40 33 30 29 22 21 19 24 37 30 15 357 343 341 346 3 11 28 17 6 354 351 344 339 335 337 337 341 343 339 335 328
121 122 122 120 120 121 121 117 114 116 105 103 104 96 103 100 113 115 108 99 96 80 49 134 126 125 117 94 68 45 39 40 35 34 23 15 17 20 20 41 47 15 5 355 336 357 8 32 31 20 7 359 350 348 341 338 337 335 336 337 340 342 341
124 124 123 124 124 122 120 119 121 126 121 120 109 113 113 98 82 99 104 99 107 98 64 68 119 111 98 83 89 80 58 64 42 35 16 21 24 26 15 30 39 26 9 346 348 17 14 33 36 19 15 4 1 355 347 342 341 341 341 340 341 345 349
125 124 123 126 127 127 128 126 119 108 106 106 111 112 104 98 89 80 91 100 101 96 89 71 99 107 98 96 91 83 76 61 50 24 22 16 14 28 12 6 21 22 9 9 20 20 21 36 46 25 11 21 6 0 341 333 342 345 348 352 351 352 355
125 125 127 126 123 124 124 115 116 109 100 106 110 103 96 96 93 77 72 85 78 90 97 71 73 101 111 106 105 90 65 64 47 29 21 32 23 6 6 1 0 7 8 23 21 20 25 31 50 26 26 29 10 354 327 338 347 347 339 350 342 347 345
128 129 131 129 127 124 123 120 117 112 111 103 102 96 94 94 89 76 62 62 80 66 90 93 65 92 90 86 84 90 77 93 106 75 57 36 25 7 355 347 327 359 3 26 21 16 18 25 32 42 34 25 339 295 334 3 339 343 346 349 351 350 356
129 129 126 124 120 118 123 125 123 117 112 112 106 101 97 93 92 82 61 56 66 65 67 91 93 69 78 74 66 70 88 81 190 122 81 35 359 10 340 322 325 335 346 32 21 19 17 20 24 33 9 10 9 12 11 354 344 346 350 352 352 0 0
128 130 131 130 127 127 130 123 120 117 116 111 107 105 101 100 97 90 73 55 48 55 48 65 81 81 71 75 67 60 61 60 35 122 117 83 331 301 297 314 313 341 6 37 23 19 20 18 28 11 11 15 12 9 10 10 359 358 356 354 359 4 360
131 132 132 130 129 131 132 131 125 123 123 121 118 110 107 103 99 98 100 82 52 39 28 65 60 71 74 70 66 58 42 31 36 124 124 146 270 274 319 333 340 332 32 32 27 18 17 25 17 12 16 11 14 13 14 10 11 0 357 0 2 0 359